Regional Weather Roundup
Issued by NWS

Home | Current Version | Previous Version | Graphics & Text | Print | Product List | Glossary On
Versions: 1 2 3 4 5 6 7 8 9 10 11 12 13 14 15 16 17 18 19 20 21 22 23 24 25 26 27 28 29 30 31 32 33 34 35 36 37 38 39 40 41 42 43 44 45 46 47 48 49 50
000
ASUS43 KMPX 102101
RWRMN
WEATHER ROUNDUP FOR MINNESOTA
NATIONAL WEATHER SERVICE TWIN CITIES/CHANHASSEN MN
300 PM CST SAT DEC 10 2016


NOTE: "FAIR" INDICATES FEW OR NO CLOUDS BELOW 12,000 FEET WITH NO
SIGNIFICANT WEATHER AND/OR OBSTRUCTIONS TO VISIBILITY. N/A MEANS
CURRENT SKY AND/OR WEATHER CONDITIONS ARE NOT AVAILABLE.

MNZ060>063-068>070-102200-
   Twin Cities Metro

CITY           SKY/WX    TMP DP  RH WIND       PRES   REMARKS
TWIN CITIES    LGT SNOW  11   5  77 S3        30.36F
ST PAUL        LGT SNOW  12   5  73 S5        30.38S WCI   4
CRYSTAL        CLOUDY    12   0  58 CALM      30.34F
BLAINE         CLOUDY    14   1  57 VRB3      30.34F
LAKEVILLE      LGT SNOW   9   7  92 CALM      30.34F VSB 3/4
EDEN PRAIRIE   LGT SNOW  11   5  77 SE5       30.33F VSB 1   WCI   3
SOUTH ST PAUL  LGT SNOW  12   6  77 CALM      30.36F
LAKE ELMO      PTSUNNY   14   5  67 S3        30.36F
$$
MNZ001>005-007-008-013>017-022>024-027-028-102200-
   Northwest Minnesota

CITY           SKY/WX    TMP DP  RH WIND       PRES   REMARKS
BEMIDJI        CLOUDY     0  -8  70 E6        30.29F WCI -12
HALLOCK        CLOUDY    -4  -8  84 CALM      30.37F
ROSEAU         CLEAR     -2  -8  78 SW3       30.35F
WARROAD        CLEAR     -2  -6  84 CALM      30.34F
THIEF RVR FALL CLOUDY    -2  -7  79 E5        30.34F WCI -12
CROOKSTON      CLOUDY    -2  -8  78 E3        30.37S
FOSSTON        CLOUDY    -4 -11  71 NE5       30.30F WCI -15
DETROIT LAKES  CLOUDY     1  -4  78 SE7       30.28F WCI -11
MOORHEAD       CLOUDY     0  -8  71 E6        30.32F WCI -12
PARK RAPIDS    PTSUNNY    2  -7  66 CALM      30.27F
$$
MNZ006-009>011-018-025>026-102200-
   North Central Minnesota

CITY           SKY/WX    TMP DP  RH WIND       PRES   REMARKS
BAUDETTE       PTCLDY     2  -5  72 CALM      30.32S
FLAG ISLAND    CLEAR      1  -2  85 CALM      30.33S
INTL FALLS     MOCLDY     3  -4  72 CALM      30.32S
WASKISH        PTCLDY     3  -2  78 CALM      30.32S
BIG FORK       CLEAR      5  -8  56 CALM      30.30F
LONGVILLE      CLOUDY     3  -6  66 CALM      30.30F
GRAND RAPIDS   CLOUDY     2  -5  72 SE5       30.32F WCI  -8
CRANE LAKE     CLOUDY     3  -4  72 CALM      30.34F
ORR            CLEAR      1  -8  66 CALM      30.28S
COOK           CLEAR      3  -6  66 CALM      30.30S
$$
MNZ012-019>021-037-102200-
   Northeast Minnesota

CITY           SKY/WX    TMP DP  RH WIND       PRES   REMARKS
DULUTH         PTCLDY     5  -5  63 W7        30.30S WCI  -7
ELY            CLEAR      3  -6  66 CALM      30.28F
HIBBING        CLEAR      1  -8  66 SE3       30.30S
EVELETH        CLEAR      4  -7  61 CALM      30.30F
DULUTH HARBOR  CLEAR     10   0  61 CALM      30.38F
TWO HARBORS    CLEAR     10  -2  56 W3        30.31S
SILVER BAY     CLEAR     10  -4  52 CALM      30.30S
GRAND MARAIS     N/A     12  -1  56 NW3       30.36S
G MARAIS ARPRT CLEAR      1  -8  66 CALM      30.24S
$$
MNZ029>031-032-039>041-046>048-054>057-064-102200-
   West Central Minnesota

CITY           SKY/WX    TMP DP  RH WIND       PRES   REMARKS
FERGUS FALLS   CLOUDY     1  -6  71 E6        30.33F WCI -10
WHEATON        LGT SNOW   5   0  78 E9        30.29F WCI  -9
MORRIS         LGT SNOW   3   0  85 E7        30.26F WCI  -9
ALEXANDRIA     CLOUDY     3  -3  76 E7        30.26F WCI  -9
ELBOW LAKE     PTSUNNY    1  -4  80 SE7       30.28F WCI -12
WADENA         CLOUDY     1  -6  71 E3        30.28S
GLENWOOD       LGT SNOW   5   0  78 E7        30.26F WCI  -7
APPLETON       LGT SNOW   7   1  78 E7        30.27F WCI  -5
BENSON         MIX PCPN   7   1  78 SE6       30.27F VSB 1   WCI  -3
ORTONVILLE     LGT SNOW   3  -2  78 CALM      30.25F
MADISON        LGT SNOW   9   3  78 E9        30.25F WCI  -5
WILLMAR        LGT SNOW  10   7  85 CALM      30.28F
$$
MNZ033>034-036-042>043-049>051-058-059-102200-
   Central Minnesota

CITY           SKY/WX    TMP DP  RH WIND       PRES   REMARKS
ST CLOUD       CLOUDY     9   1  70 SE5       30.31F WCI   1
PAYNESVILLE    LGT SNOW   8   3  82 SE3       30.29F
AITKIN         CLOUDY     9  -2  61 CALM      30.29F
PINE RIVER     CLOUDY     3  -2  78 CALM      30.32F
BRAINERD       CLOUDY     7  -2  66 S7        30.30F WCI  -5
LONG PRAIRIE   CLOUDY     5  -2  72 E3        30.29F
LITTLE FALLS   CLOUDY     7  -4  61 CALM      30.31F
LITCHFIELD     LGT SNOW  10   5  79 SE3       30.30F
BUFFALO        LGT SNOW  10   4  76 SE3       30.33F
MAPLE LAKE     LGT SNOW  11   6  79 S3        30.33F
HUTCHINSON     LGT SNOW  10   6  82 E6        30.31F WCI   1
$$
MNZ037-044-045-052-053-102200-
   East Central Minnesota

CITY           SKY/WX    TMP DP  RH WIND       PRES   REMARKS
PRINCETON      CLOUDY    10   0  61 S3        30.32F
MORA           CLOUDY    10   1  67 S5        30.34F WCI   2
CAMBRIDGE      CLOUDY    12   1  62 CALM      30.33F
RUSH CITY      CLOUDY    10   1  67 S5        30.35F WCI   2
MOOSE LAKE     CLOUDY    10   0  61 CALM      30.31F
HINCKLEY       CLOUDY    12   3  67 S5        30.33F WCI   4
CLOQUET        MOCLDY     7  -4  61 CALM      30.30F
MCGREGOR       CLOUDY     9   1  72 CALM      30.31F
$$
MNZ071>073-080-081-089-090-097-098-102200-
   Southwest Minnesota

CITY           SKY/WX    TMP DP  RH WIND       PRES   REMARKS
MONTEVIDEO     LGT SNOW   7   3  85 SE10      30.27F WCI  -8
GRANITE FALLS  LGT SNOW  10   5  82 E10       30.28F WCI  -4
CANBY          LGT SNOW   8   4  82 SE12      30.24F WCI  -7
MARSHALL       LGT SNOW   8   3  80 E13       30.22F WCI  -8
REDWOOD FALLS  LGT SNOW  10   4  76 SE9       30.28F WCI  -3
OLIVIA         LGT SNOW  10   5  79 E8        30.27F VSB 1   WCI  -1
PIPESTONE      LGT SNOW  10   7  85 SE15      30.12F WCI  -6
WINDOM         LGT SNOW  10   7  85 MISG      30.22F VSB 1
WORTHINGTON    LGT SNOW  11   8  88 E15       30.17F FOG     WCI  -5
JACKSON        LGT SNOW  10   7  85 E10       30.22F WCI  -3
TRACY          LGT SNOW  10   6  85 E12       30.22F WCI  -5
SLAYTON        LGT SNOW   9   5  86 E13       30.20F WCI  -7
$$
MNZ065>067-074>077-082>085-091>093-102200-
   South Central Minnesota

CITY           SKY/WX    TMP DP  RH WIND       PRES   REMARKS
MANKATO        LGT SNOW  11   7  84 E8        30.31F FOG     WCI  -1
NEW ULM        LGT SNOW   9   5  85 E9        30.29F WCI  -5
ST JAMES       LGT SNOW  10   7  85 E9        30.29F WCI  -2
FAIRMONT       LGT SNOW  11   8  88 E9        30.27F VSB 1   WCI  -2
GLENCOE        LGT SNOW  11   9  89 E7        30.31F WCI   1
FARIBAULT      SNOW      10   9  92 CALM      30.33F VSB 1/2
OWATONNA       LGT SNOW  12   7  79 E6        30.31F WCI   3
WASECA         LGT SNOW  12   9  85 E8        30.32F WCI   1
ALBERT LEA     LGT SNOW  16  12  86 E8        30.28F WCI   5
$$
MNZ078>079-086>088-094>096-102200-
   Southeast Minnesota

CITY           SKY/WX    TMP DP  RH WIND       PRES   REMARKS
ROCHESTER      LGT SNOW   9   6  88 E6        30.31F VSB 3/4 WCI  -1
RED WING       LGT SNOW  12   7  79 SW5       30.37S VSB 1   WCI   4
STANTON        LGT SNOW  12   7  81 CALM      30.34F VSB 3/4
DODGE CENTER   LGT SNOW   9   5  85 E3        30.31F VSB 1
WINONA         LGT SNOW  14  10  85 CALM      30.39F
AUSTIN         LGT SNOW  12   9  85 E7        30.30F WCI   2
PRESTON        LGT SNOW  10   7  85 SE5       30.32F WCI   2
$$
ABBREVIATIONS USED IN REMARKS
   TC - TEMPERATURES IN CELSIUS
  WCI - WIND CHILL INDEX
   HX - HEAT INDEX
  VSB - VISIBILITY
$$




USA.gov is the U.S. government's official web portal to all federal, state and local government web resources and services.